| time (UTC) | temp F | wind direction | speed knots | gust knots | rain 1hr in | rain 24hr in | rain mn in | humidity % | barometer mb |
| 20260503002129 | 50 | 124 | 0.0 | 0.0 | 0.00 | 0.09 | 0.09 | 84 | 1036.4 |
| 20260503001626 | 50 | 136 | 0.0 | 0.0 | 0.00 | 0.09 | 0.09 | 84 | 1036.8 |
| 20260503001125 | 50 | 130 | 0.0 | 0.0 | 0.00 | 0.09 | 0.09 | 84 | 1036.4 |
| 20260503000623 | 50 | 139 | 0.0 | 0.0 | 0.00 | 0.09 | 0.09 | 83 | 1036.4 |
| 20260503000122 | 50 | 141 | 0.0 | 0.0 | 0.00 | 0.09 | 0.09 | 83 | 1036.4 |
| 20260502235619 | 51 | 152 | 0.0 | 0.0 | 0.00 | 0.09 | 0.09 | 83 | 1036.4 |
| 20260502235121 | 51 | 145 | 0.0 | 0.0 | 0.00 | 0.09 | 0.09 | 83 | 1036.4 |
| 20260502234117 | 51 | 139 | 0.0 | 0.0 | 0.00 | 0.09 | 0.09 | 82 | 1036.4 |
| 20260502232612 | 51 | 154 | 0.0 | 0.0 | 0.00 | 0.09 | 0.09 | 81 | 1036.4 |
| 20260502232113 | 51 | 130 | 0.0 | 0.0 | 0.00 | 0.09 | 0.09 | 81 | 1036.4 |
| 20260502231609 | 51 | 130 | 0.0 | 0.0 | 0.00 | 0.09 | 0.09 | 80 | 1036.4 |
| 20260502231109 | 51 | 142 | 0.0 | 0.0 | 0.00 | 0.09 | 0.09 | 79 | 1036.4 |
| 20260502230605 | 51 | 142 | 0.0 | 0.0 | 0.00 | 0.09 | 0.09 | 79 | 1036.8 |
| 20260502225603 | 51 | 143 | 0.0 | 0.0 | 0.00 | 0.09 | 0.09 | 79 | 1036.8 |
| 20260502225102 | 51 | 149 | 0.0 | 0.0 | 0.00 | 0.09 | 0.09 | 78 | 1036.8 |
| 20260502224600 | 51 | 144 | 0.0 | 0.0 | 0.00 | 0.09 | 0.09 | 78 | 1036.8 |
| 20260502224059 | 52 | 146 | 0.0 | 0.0 | 0.00 | 0.09 | 0.09 | 78 | 1036.8 |
| 20260502223559 | 52 | 143 | 0.0 | 0.0 | 0.00 | 0.09 | 0.09 | 78 | 1036.4 |
| 20260502223057 | 52 | 141 | 0.0 | 0.0 | 0.00 | 0.09 | 0.09 | 78 | 1036.4 |
| 20260502222054 | 52 | 145 | 0.0 | 0.0 | 0.00 | 0.09 | 0.09 | 77 | 1036.4 |
| 20260502221551 | 52 | 143 | 0.0 | 0.0 | 0.00 | 0.09 | 0.09 | 77 | 1036.4 |
| 20260502221051 | 52 | 143 | 0.0 | 0.0 | 0.00 | 0.09 | 0.09 | 77 | 1036.4 |
| 20260502220548 | 52 | 143 | 0.0 | 0.0 | 0.00 | 0.09 | 0.09 | 77 | 1036.4 |
| 20260502220100 | 52 | 141 | 0.0 | 0.0 | 0.00 | 0.09 | 0.09 | 77 | 1036.8 |
| 20260502215546 | 52 | 146 | 0.0 | 0.0 | 0.00 | 0.09 | 0.09 | 77 | 1036.8 |
| 20260502214544 | 52 | 148 | 0.0 | 0.0 | 0.00 | 0.09 | 0.09 | 76 | 1036.8 |
| 20260502214042 | 52 | 154 | 0.0 | 0.9 | 0.00 | 0.09 | 0.09 | 76 | 1036.4 |
| 20260502213540 | 53 | 137 | 0.0 | 1.7 | 0.00 | 0.09 | 0.09 | 76 | 1036.4 |
| 20260502213039 | 53 | 160 | 0.0 | 3.5 | 0.00 | 0.09 | 0.09 | 75 | 1036.4 |
| 20260502212537 | 53 | 143 | 0.0 | 5.2 | 0.00 | 0.09 | 0.09 | 75 | 1036.4 |
| 20260502212036 | 53 | 204 | 3.5 | 5.2 | 0.00 | 0.09 | 0.09 | 75 | 1036.4 |
| 20260502211535 | 53 | 191 | 1.7 | 2.6 | 0.00 | 0.09 | 0.09 | 75 | 1036.4 |
| 20260502211033 | 53 | 147 | 0.0 | 1.7 | 0.00 | 0.09 | 0.09 | 76 | 1036.4 |
| 20260502210531 | 52 | 141 | 0.0 | 1.7 | 0.00 | 0.09 | 0.09 | 77 | 1036.4 |
| 20260502205027 | 52 | 132 | 1.7 | 3.5 | 0.00 | 0.09 | 0.09 | 76 | 1036.4 |
| 20260502204525 | 52 | 153 | 0.9 | 6.1 | 0.00 | 0.09 | 0.09 | 76 | 1036.4 |
| 20260502204025 | 52 | 141 | 1.7 | 6.1 | 0.00 | 0.09 | 0.09 | 76 | 1036.4 |
| 20260502201518 | 52 | 139 | 1.7 | 2.6 | 0.00 | 0.09 | 0.09 | 76 | 1036.8 |
| 20260502200014 | 52 | 135 | 0.0 | 3.5 | 0.00 | 0.09 | 0.09 | 76 | 1036.8 |
| 20260502195512 | 52 | 139 | 0.9 | 3.5 | 0.00 | 0.09 | 0.09 | 77 | 1037.1 |
| 20260502194509 | 52 | 140 | 0.9 | 6.1 | 0.00 | 0.09 | 0.09 | 77 | 1037.1 |
| 20260502194009 | 52 | 198 | 1.7 | 6.1 | 0.00 | 0.09 | 0.09 | 77 | 1037.1 |
| 20260502193507 | 52 | 152 | 1.7 | 3.5 | 0.00 | 0.09 | 0.09 | 77 | 1037.1 |
| 20260502193006 | 52 | 161 | 0.0 | 3.5 | 0.00 | 0.09 | 0.09 | 77 | 1037.1 |
| 20260502192505 | 51 | 145 | 0.9 | 3.5 | 0.00 | 0.09 | 0.09 | 78 | 1037.1 |
| 20260502192004 | 52 | 175 | 0.9 | 3.5 | 0.00 | 0.09 | 0.09 | 79 | 1037.1 |
| 20260502191501 | 52 | 144 | 0.9 | 2.6 | 0.00 | 0.09 | 0.09 | 79 | 1037.5 |
| 20260502190959 | 52 | 165 | 0.9 | 2.6 | 0.00 | 0.09 | 0.09 | 79 | 1037.5 |
| 20260502190457 | 51 | 129 | 0.0 | 2.6 | 0.01 | 0.09 | 0.09 | 79 | 1037.5 |
| 20260502185956 | 51 | 186 | 0.9 | 1.7 | 0.01 | 0.09 | 0.09 | 79 | 1037.5 |
| 20260502185454 | 51 | 166 | 0.9 | 2.6 | 0.01 | 0.09 | 0.09 | 79 | 1037.5 |
| 20260502184953 | 51 | 137 | 0.0 | 1.7 | 0.01 | 0.09 | 0.09 | 80 | 1037.5 |
| 20260502184452 | 51 | 151 | 0.9 | 2.6 | 0.01 | 0.09 | 0.09 | 81 | 1037.5 |
| 20260502183448 | 51 | 141 | 0.0 | 0.9 | 0.01 | 0.09 | 0.09 | 82 | 1037.8 |
| 20260502182947 | 51 | 141 | 0.0 | 1.7 | 0.02 | 0.09 | 0.09 | 82 | 1038.1 |
| 20260502182446 | 51 | 248 | 0.9 | 2.6 | 0.02 | 0.09 | 0.09 | 81 | 1037.8 |
| 20260502181945 | 51 | 155 | 0.0 | 2.6 | 0.02 | 0.09 | 0.09 | 82 | 1037.8 |
| 20260502181442 | 50 | 135 | 0.0 | 1.7 | 0.02 | 0.09 | 0.09 | 81 | 1037.8 |
| 20260502180941 | 50 | 178 | 0.0 | 0.0 | 0.02 | 0.09 | 0.09 | 81 | 1037.5 |
| 20260502180439 | 50 | 142 | 0.0 | 0.0 | 0.02 | 0.08 | 0.08 | 81 | 1038.1 |
| 20260502170418 | 51 | 139 | 0.0 | 0.0 | 0.06 | 0.06 | 0.06 | 85 | 1037.8 |
| 20260502163910 | 52 | 150 | 0.0 | 2.6 | 0.02 | 0.02 | 0.02 | 79 | 1037.8 |
| 20260502163409 | 53 | 142 | 0.9 | 2.6 | 0.01 | 0.01 | 0.01 | 77 | 1038.1 |
| 20260502162909 | 53 | 137 | 0.9 | 5.2 | 0.00 | 0.00 | 0.00 | 75 | 1037.8 |
| 20260502162406 | 53 | 202 | 3.5 | 5.2 | 0.00 | 0.00 | 0.00 | 74 | 1038.1 |
| 20260502161905 | 53 | 119 | 0.0 | 3.5 | 0.00 | 0.00 | 0.00 | 73 | 1037.8 |
| 20260502161402 | 55 | 133 | 0.0 | 3.5 | 0.00 | 0.00 | 0.00 | 71 | 1038.1 |
| 20260502160904 | 55 | 153 | 1.7 | 2.6 | 0.00 | 0.00 | 0.00 | 70 | 1037.8 |
| 20260502160401 | 55 | 159 | 0.0 | 3.5 | 0.00 | 0.00 | 0.00 | 71 | 1038.5 |
| 20260502151846 | 55 | 160 | 0.9 | 3.5 | 0.00 | 0.00 | 0.00 | 68 | 1038.1 |
| 20260502151344 | 55 | 134 | 0.0 | 1.7 | 0.00 | 0.00 | 0.00 | 67 | 1038.1 |
| 20260502150843 | 54 | 137 | 0.9 | 2.6 | 0.00 | 0.00 | 0.00 | 69 | 1038.1 |
| 20260502150341 | 55 | 160 | 0.9 | 2.6 | 0.00 | 0.00 | 0.00 | 69 | 1038.5 |
| 20260502130318 | 51 | 165 | 0.0 | 2.6 | 0.00 | 0.00 | 0.00 | 74 | 1039.2 |
| 20260502123759 | 50 | 143 | 0.0 | 1.7 | 0.00 | 0.00 | 0.00 | 75 | 1039.2 |
| 20260502122808 | 50 | 150 | 0.0 | 3.5 | 0.00 | 0.00 | 0.00 | 76 | 1039.2 |
| 20260502122254 | 50 | 174 | 0.9 | 1.7 | 0.00 | 0.00 | 0.00 | 75 | 1039.2 |
| 20260502121250 | 50 | 117 | 0.0 | 2.6 | 0.00 | 0.00 | 0.00 | 75 | 1039.2 |
| 20260502120749 | 50 | 140 | 0.0 | 2.6 | 0.00 | 0.00 | 0.00 | 76 | 1038.8 |
| 20260502120248 | 49 | 213 | 0.0 | 3.5 | 0.00 | 0.00 | 0.00 | 75 | 1038.8 |
| 20260502115747 | 50 | 179 | 2.6 | 3.5 | 0.00 | 0.00 | 0.00 | 75 | 1038.8 |
| 20260502114744 | 49 | 151 | 1.7 | 2.6 | 0.00 | 0.00 | 0.00 | 75 | 1038.5 |
| 20260502114243 | 49 | 228 | 0.9 | 2.6 | 0.00 | 0.00 | 0.00 | 75 | 1038.8 |
| 20260502113742 | 49 | 143 | 0.0 | 2.6 | 0.00 | 0.00 | 0.00 | 76 | 1038.8 |
| 20260502113239 | 49 | 60 | 0.9 | 2.6 | 0.00 | 0.00 | 0.00 | 76 | 1038.8 |
| 20260502112739 | 49 | 170 | 1.7 | 2.6 | 0.00 | 0.00 | 0.00 | 75 | 1038.5 |
| 20260502112236 | 48 | 152 | 0.9 | 0.9 | 0.00 | 0.00 | 0.00 | 76 | 1038.5 |
| 20260502111734 | 48 | 143 | 0.0 | 0.0 | 0.00 | 0.00 | 0.00 | 76 | 1038.5 |
| 20260502111233 | 48 | 143 | 0.0 | 0.9 | 0.00 | 0.00 | 0.00 | 76 | 1038.1 |
| 20260502110746 | 48 | 130 | 0.0 | 1.7 | 0.00 | 0.00 | 0.00 | 76 | 1038.1 |
| 20260502110232 | 48 | 217 | 0.0 | 1.7 | 0.00 | 0.00 | 0.00 | 76 | 1038.5 |
| 20260502105731 | 48 | 139 | 0.0 | 1.7 | 0.00 | 0.00 | 0.00 | 76 | 1038.5 |
| 20260502105229 | 48 | 169 | 0.9 | 0.9 | 0.00 | 0.00 | 0.00 | 76 | 1038.1 |
| 20260502104224 | 47 | 143 | 0.0 | 0.0 | 0.00 | 0.00 | 0.00 | 76 | 1038.1 |
| 20260502103722 | 47 | 143 | 0.0 | 0.9 | 0.00 | 0.00 | 0.00 | 76 | 1038.1 |
| 20260502103222 | 47 | 139 | 0.0 | 0.9 | 0.00 | 0.00 | 0.00 | 76 | 1038.1 |
| 20260502102722 | 47 | 136 | 0.9 | 0.9 | 0.00 | 0.00 | 0.00 | 76 | 1038.1 |
| 20260502101718 | 47 | 151 | 0.0 | 0.9 | 0.00 | 0.00 | 0.00 | 76 | 1038.1 |
| 20260502101215 | 47 | 142 | 0.0 | 0.0 | 0.00 | 0.00 | 0.00 | 76 | 1038.1 |
| 20260502100716 | 47 | 143 | 0.0 | 0.0 | 0.00 | 0.00 | 0.00 | 76 | 1038.1 |
| 20260502100212 | 47 | 142 | 0.0 | 0.9 | 0.00 | 0.00 | 0.00 | 76 | 1038.1 |
| 20260502090656 | 47 | 134 | 0.0 | 0.0 | 0.00 | 0.00 | 0.00 | 74 | 1037.8 |
| 20260502070116 | 49 | 138 | 0.0 | 0.9 | 0.00 | 0.00 | 0.00 | 63 | 1037.8 |
| 20260502065613 | 49 | 141 | 0.0 | 1.7 | 0.00 | 0.00 | 0.00 | 63 | 1037.8 |
| 20260502065112 | 49 | 218 | 0.0 | 1.7 | 0.00 | 0.00 | 0.00 | 62 | 1037.8 |
| 20260502064610 | 50 | 144 | 0.0 | 3.5 | 0.00 | 0.00 | 0.00 | 62 | 1038.1 |
| 20260502064107 | 50 | 153 | 0.0 | 3.5 | 0.00 | 0.00 | 0.00 | 61 | 1037.8 |
| 20260502063607 | 50 | 143 | 0.0 | 2.6 | 0.00 | 0.00 | 0.00 | 61 | 1037.8 |
| 20260502063106 | 50 | 202 | 1.7 | 3.5 | 0.00 | 0.00 | 0.00 | 60 | 1038.1 |
| 20260502062603 | 51 | 135 | 0.0 | 3.5 | 0.00 | 0.00 | 0.00 | 60 | 1037.8 |
| 20260502062101 | 51 | 172 | 0.0 | 2.6 | 0.00 | 0.00 | 0.00 | 59 | 1037.8 |
| 20260502061600 | 51 | 143 | 0.0 | 2.6 | 0.00 | 0.00 | 0.00 | 58 | 1038.1 |
| 20260502061058 | 51 | 249 | 0.0 | 3.5 | 0.00 | 0.00 | 0.00 | 58 | 1038.1 |
| 20260502060556 | 51 | 186 | 1.7 | 3.5 | 0.00 | 0.00 | 0.00 | 58 | 1038.1 |
| 20260502060107 | 51 | 54 | 1.7 | 5.2 | 0.00 | 0.00 | 0.00 | 57 | 1038.1 |
| 20260502055606 | 51 | 223 | 0.9 | 6.1 | 0.00 | 0.00 | 0.00 | 57 | 1038.1 |
| 20260502055051 | 51 | 155 | 1.7 | 6.1 | 0.00 | 0.00 | 0.00 | 57 | 1038.1 |
| 20260502054550 | 51 | 171 | 0.9 | 6.1 | 0.00 | 0.00 | 0.00 | 57 | 1038.1 |
| 20260502054048 | 52 | 218 | 1.7 | 7.8 | 0.00 | 0.00 | 0.00 | 57 | 1038.1 |
| 20260502053046 | 51 | 196 | 1.7 | 7.0 | 0.00 | 0.00 | 0.00 | 59 | 1038.1 |
| 20260502052546 | 51 | 117 | 0.9 | 7.0 | 0.00 | 0.00 | 0.00 | 59 | 1038.1 |
| 20260502052042 | 51 | 189 | 0.0 | 3.5 | 0.00 | 0.00 | 0.00 | 59 | 1038.1 |
| 20260502051541 | 51 | 182 | 1.7 | 3.5 | 0.00 | 0.00 | 0.00 | 59 | 1038.1 |
| 20260502050539 | 51 | 302 | 3.5 | 7.0 | 0.00 | 0.00 | 0.00 | 61 | 1038.1 |
| 20260502045534 | 51 | 196 | 0.0 | 3.5 | 0.00 | 0.00 | 0.00 | 61 | 1038.1 |
| 20260502045033 | 51 | 300 | 0.9 | 2.6 | 0.00 | 0.00 | 0.00 | 62 | 1038.1 |
| 20260502044030 | 51 | 259 | 0.9 | 5.2 | 0.00 | 0.00 | 0.00 | 61 | 1038.1 |
| 20260502043530 | 51 | 139 | 0.0 | 6.1 | 0.00 | 0.00 | 0.00 | 61 | 1038.1 |
| 20260502042527 | 51 | 230 | 1.7 | 6.1 | 0.00 | 0.00 | 0.00 | 61 | 1038.1 |
| 20260502042024 | 51 | 234 | 1.7 | 6.1 | 0.00 | 0.00 | 0.00 | 60 | 1038.1 |
| 20260502041523 | 51 | 246 | 1.7 | 6.1 | 0.00 | 0.00 | 0.00 | 60 | 1038.1 |
| 20260502041034 | 51 | 136 | 0.0 | 6.1 | 0.00 | 0.00 | 0.00 | 60 | 1038.1 |
| 20260502040522 | 51 | 20 | 0.9 | 2.6 | 0.00 | 0.00 | 0.00 | 61 | 1038.1 |
| 20260502040018 | 51 | 148 | 0.9 | 7.0 | 0.00 | 0.00 | 0.00 | 60 | 1038.5 |
| 20260502035517 | 51 | 143 | 0.9 | 7.0 | 0.00 | 0.00 | 0.00 | 60 | 1038.1 |
| 20260502035015 | 52 | 141 | 0.9 | 6.1 | 0.00 | 0.00 | 0.00 | 60 | 1038.5 |
| 20260502034514 | 52 | 257 | 2.6 | 6.1 | 0.00 | 0.00 | 0.00 | 60 | 1038.5 |
| 20260502034012 | 51 | 147 | 0.0 | 3.5 | 0.00 | 0.00 | 0.00 | 60 | 1038.1 |
| 20260502033512 | 52 | 140 | 0.9 | 5.2 | 0.00 | 0.00 | 0.00 | 60 | 1038.1 |
| 20260502032509 | 52 | 222 | 3.5 | 6.1 | 0.00 | 0.00 | 0.00 | 59 | 1038.1 |
| 20260502032007 | 52 | 117 | 1.7 | 6.1 | 0.00 | 0.00 | 0.00 | 59 | 1038.1 |
| 20260502031507 | 52 | 270 | 3.5 | 7.0 | 0.00 | 0.00 | 0.00 | 59 | 1038.5 |
| 20260502030503 | 52 | 211 | 1.7 | 3.5 | 0.00 | 0.00 | 0.00 | 59 | 1038.5 |
| 20260502030002 | 52 | 152 | 0.9 | 6.1 | 0.00 | 0.00 | 0.00 | 58 | 1038.1 |
| 20260502025500 | 52 | 306 | 3.5 | 7.0 | 0.00 | 0.00 | 0.00 | 57 | 1038.1 |
| 20260502024957 | 52 | 136 | 0.9 | 7.0 | 0.00 | 0.00 | 0.00 | 57 | 1038.5 |
| 20260502023952 | 52 | 143 | 0.0 | 5.2 | 0.00 | 0.00 | 0.00 | 55 | 1038.1 |
| 20260502023451 | 52 | 142 | 0.0 | 5.2 | 0.00 | 0.00 | 0.00 | 55 | 1038.1 |
| 20260502022950 | 53 | 139 | 0.0 | 3.5 | 0.00 | 0.00 | 0.00 | 54 | 1038.1 |
| 20260502022448 | 53 | 152 | 0.0 | 6.1 | 0.00 | 0.00 | 0.00 | 53 | 1038.1 |
| 20260502021945 | 53 | 191 | 3.5 | 6.1 | 0.00 | 0.00 | 0.00 | 53 | 1038.1 |
| 20260502021443 | 53 | 291 | 0.9 | 2.6 | 0.00 | 0.00 | 0.00 | 52 | 1038.1 |
| 20260502020941 | 53 | 342 | 0.9 | 3.5 | 0.00 | 0.00 | 0.00 | 52 | 1038.1 |
| 20260502020441 | 53 | 57 | 0.9 | 3.5 | 0.00 | 0.00 | 0.00 | 51 | 1038.5 |
| 20260502015939 | 53 | 252 | 1.7 | 2.6 | 0.00 | 0.00 | 0.00 | 50 | 1038.5 |
| 20260502015438 | 54 | 79 | 1.7 | 2.6 | 0.00 | 0.00 | 0.00 | 49 | 1038.1 |
| 20260502014935 | 54 | 262 | 0.9 | 5.2 | 0.00 | 0.00 | 0.00 | 48 | 1038.1 |
| 20260502014435 | 54 | 217 | 0.9 | 5.2 | 0.00 | 0.00 | 0.00 | 47 | 1038.1 |
| 20260502013934 | 54 | 262 | 2.6 | 5.2 | 0.00 | 0.00 | 0.00 | 47 | 1038.1 |
| 20260502012931 | 54 | 275 | 1.7 | 5.2 | 0.00 | 0.00 | 0.00 | 46 | 1038.1 |
| 20260502011925 | 54 | 140 | 0.9 | 3.5 | 0.00 | 0.00 | 0.00 | 46 | 1038.1 |
| 20260502010922 | 54 | 138 | 0.0 | 3.5 | 0.00 | 0.00 | 0.00 | 47 | 1037.8 |
| 20260502010422 | 54 | 159 | 0.0 | 3.5 | 0.00 | 0.00 | 0.00 | 46 | 1037.8 |
| 20260502005918 | 54 | 145 | 0.0 | 0.0 | 0.00 | 0.00 | 0.00 | 46 | 1037.8 |
| 20260502005418 | 54 | 165 | 0.0 | 0.0 | 0.00 | 0.00 | 0.00 | 45 | 1037.5 |
| 20260502004416 | 52 | 135 | 0.0 | 0.0 | 0.00 | 0.00 | 0.00 | 50 | 1037.5 |
| 20260502003913 | 53 | 149 | 0.0 | 0.0 | 0.00 | 0.00 | 0.00 | 48 | 1037.5 |
| 20260502003411 | 53 | 151 | 0.0 | 0.0 | 0.00 | 0.00 | 0.00 | 46 | 1037.1 |